Muenchen, Germany

10:19 PM CEST on August 26, 2016 (GMT +0200)
Munich Airport

Weather History for EDDM - June, 2013

Change the Weather History Date:

Tuesday, June 4, 2013

  Actual Average Record
Temperature  
Mean Temperature 51 °F -  
Max Temperature 60 °F 71 °F 86 °F (2003)
Min Temperature 42 °F 51 °F 42 °F (2013)
Degree Days  
Heating Degree Days 14    
Growing Degree Days 1 (Base 50)    
Moisture  
Dew Point 46 °F    
Average Humidity 87    
Maximum Humidity 100    
Minimum Humidity 63    
Precipitation  
Precipitation 0.00 in 0.14 in - ()
Sea Level Pressure  
Sea Level Pressure 30.12 in    
Wind  
Wind Speed 6 mph ()    
Max Wind Speed 10 mph    
Max Gust Speed -    
Visibility 5.2 miles    
Events Rain    
Averages and records for this station are not official NWS values.
T = Trace of Precipitation, MM = Missing Value Source: Averaged Metar Reports

Daily Weather History Graph

Daily Weather History Graph

Search for Another Location

Airport or City:

Trip Planner

Search our weather history database for the weather conditions in past years. The results will help you decide how hot, cold, wet, or windy it might be!

Date:

Astronomy

Jun. 04, 2013 Rise Set
Actual Time 5:14 AM CEST 9:08 PM CEST
Civil Twilight 4:33 AM CEST 9:49 PM CEST
Nautical Twilight 3:37 AM CEST 10:45 PM CEST
Astronomical Twilight 2:10 AM CEST 12:14 AM CEST
Moon 2:52 AM CEST (6/4) 5:06 PM CEST (6/4)
Length of Visible Light 17h 15m
Length of Day
15h 54m
Waning Crescent, 16% of the Moon is Illuminated
Jun 4
Waning Crescent
Jun 8
New
Jun 16
First Quarter
Jun 23
Full
Jun 30
Last Quarter

Hourly Weather History & Observations

Time (CEST) Temp. Windchill Dew Point Humidity Pressure Visibility Wind Dir Wind Speed Gust Speed Precip Events Conditions
12:20 AM 42.8 °F 37.0 °F 42.8 °F 100% 30.21 in 5.0 mi WSW 10.4 mph - N/A   Light Drizzle
12:50 AM 42.8 °F 37.5 °F 42.8 °F 100% 30.21 in 3.7 mi WSW 9.2 mph - N/A   Light Drizzle
1:20 AM 42.8 °F 37.5 °F 42.8 °F 100% 30.21 in 3.7 mi WSW 9.2 mph - N/A   Overcast
1:50 AM 42.8 °F 37.5 °F 42.8 °F 100% 30.18 in 3.7 mi WSW 9.2 mph - N/A   Overcast
2:20 AM 42.8 °F 38.0 °F 42.8 °F 100% 30.18 in 3.7 mi WSW 8.1 mph - N/A   Light Drizzle
2:50 AM 42.8 °F 38.0 °F 42.8 °F 100% 30.18 in 3.1 mi SW 8.1 mph - N/A   Overcast
3:20 AM 42.8 °F 38.6 °F 42.8 °F 100% 30.18 in 3.1 mi SW 6.9 mph - N/A   Mostly Cloudy
3:50 AM 42.8 °F 38.0 °F 42.8 °F 100% 30.15 in 3.1 mi WSW 8.1 mph - N/A Rain Light Rain
4:20 AM 42.8 °F 38.6 °F 42.8 °F 100% 30.15 in 4.3 mi SW 6.9 mph - N/A   Mostly Cloudy
4:50 AM 42.8 °F 38.6 °F 42.8 °F 100% 30.15 in 4.3 mi SW 6.9 mph - N/A   Mostly Cloudy
5:20 AM 42.8 °F 38.6 °F 42.8 °F 100% 30.15 in 3.1 mi WSW 6.9 mph - N/A   Mostly Cloudy
5:50 AM 42.8 °F 38.6 °F 42.8 °F 100% 30.15 in 3.1 mi WSW 6.9 mph - N/A   Mostly Cloudy
6:20 AM 44.6 °F 41.4 °F 44.6 °F 100% 30.15 in 3.1 mi WSW 5.8 mph - N/A   Mostly Cloudy
6:50 AM 44.6 °F 41.4 °F 44.6 °F 100% 30.15 in 3.1 mi SW 5.8 mph - N/A   Mostly Cloudy
7:20 AM 44.6 °F 40.2 °F 44.6 °F 100% 30.15 in 3.7 mi WSW 8.1 mph - N/A   Mostly Cloudy
7:50 AM 46.4 °F 42.9 °F 44.6 °F 93% 30.12 in 5.0 mi West 6.9 mph - N/A   Mostly Cloudy
8:20 AM 46.4 °F 44.3 °F 44.6 °F 93% 30.15 in 5.0 mi West 4.6 mph - N/A   Mostly Cloudy
8:50 AM 46.4 °F 44.3 °F 44.6 °F 93% 30.15 in 5.6 mi West 4.6 mph - N/A   Mostly Cloudy
9:20 AM 48.2 °F - 44.6 °F 87% 30.15 in 6.2 mi West 4.6 mph - N/A   Mostly Cloudy
9:50 AM 48.2 °F - 44.6 °F 87% 30.15 in 6.2 mi West 3.5 mph - N/A Rain Light Rain
10:20 AM 48.2 °F - 46.4 °F 93% 30.12 in 6.2 mi WNW 5.8 mph - N/A   Mostly Cloudy
10:50 AM 48.2 °F - 46.4 °F 93% 30.12 in 6.2 mi WSW 4.6 mph - N/A Rain Light Rain
11:20 AM 50.0 °F - 48.2 °F 94% 30.12 in 6.2 mi WSW 4.6 mph - N/A   Mostly Cloudy
11:50 AM 51.8 °F - 48.2 °F 88% 30.12 in 6.2 mi Variable 2.3 mph - N/A   Mostly Cloudy
12:20 PM 51.8 °F - 48.2 °F 88% 30.12 in 6.2 mi SSW 3.5 mph - N/A   Mostly Cloudy
12:50 PM 53.6 °F - 48.2 °F 82% 30.09 in 6.2 mi SW 5.8 mph - N/A   Mostly Cloudy
1:20 PM 53.6 °F - 46.4 °F 77% 30.09 in 6.2 mi Variable 3.5 mph - N/A   Mostly Cloudy
1:50 PM 55.4 °F - 48.2 °F 77% 30.09 in 6.2 mi Variable 3.5 mph - N/A   Mostly Cloudy
2:20 PM 55.4 °F - 46.4 °F 72% 30.09 in 6.2 mi Variable 1.2 mph - N/A   Mostly Cloudy
2:50 PM 55.4 °F - 46.4 °F 72% 30.09 in 6.2 mi North 3.5 mph - N/A   Mostly Cloudy
3:20 PM 57.2 °F - 46.4 °F 67% 30.09 in 6.2 mi North 3.5 mph - N/A   Mostly Cloudy
3:50 PM 59.0 °F - 46.4 °F 63% 30.09 in 6.2 mi NNE 4.6 mph - N/A   Scattered Clouds
4:20 PM 59.0 °F - 46.4 °F 63% 30.09 in 6.2 mi Variable 2.3 mph - N/A   Scattered Clouds
4:50 PM 60.8 °F - 50.0 °F 68% 30.09 in 6.2 mi Variable 2.3 mph - N/A   Scattered Clouds
5:20 PM 60.8 °F - 48.2 °F 63% 30.09 in 6.2 mi Variable 3.5 mph - N/A   Scattered Clouds
5:50 PM 59.0 °F - 50.0 °F 72% 30.06 in 6.2 mi NNE 2.3 mph - N/A   Mostly Cloudy
6:20 PM 59.0 °F - 48.2 °F 67% 30.06 in 6.2 mi Variable 3.5 mph - N/A   Mostly Cloudy
6:50 PM 59.0 °F - 50.0 °F 72% 30.06 in 6.2 mi ESE 3.5 mph - N/A   Mostly Cloudy
7:20 PM 59.0 °F - 50.0 °F 72% 30.06 in 6.2 mi East 4.6 mph - N/A   Mostly Cloudy
7:50 PM 57.2 °F - 51.8 °F 82% 30.06 in 6.2 mi East 2.3 mph - N/A   Mostly Cloudy
8:20 PM 57.2 °F - 48.2 °F 72% 30.06 in 6.2 mi SE 5.8 mph - N/A   Scattered Clouds
8:50 PM 55.4 °F - 50.0 °F 82% 30.06 in - South 4.6 mph - N/A   Clear
9:20 PM 53.6 °F - 50.0 °F 88% 30.09 in - South 4.6 mph - N/A   Clear
9:50 PM 51.8 °F - 50.0 °F 94% 30.09 in - South 4.6 mph - N/A   Clear
10:20 PM 53.6 °F - 50.0 °F 88% 30.09 in - South 4.6 mph - N/A   Clear
10:50 PM 53.6 °F - 50.0 °F 88% 30.09 in - South 6.9 mph - N/A   Clear
11:20 PM 51.8 °F - 50.0 °F 94% 30.09 in - South 3.5 mph - N/A   Clear
11:50 PM 51.8 °F - 50.0 °F 94% 30.09 in - South 3.5 mph - N/A   Clear